Window Rock, AZ

9:40 AM MDT on September 22, 2017 (GMT -0600)
Window Rock

Weather History for KRQE - December, 2012

Change the Weather History Date:

Monday, December 3, 2012

  Actual Average Record
Temperature  
Mean Temperature 40 °F -  
Max Temperature 54 °F 46 °F 64 °F (1940)
Min Temperature 21 °F 15 °F 0 °F (1968)
Degree Days  
Heating Degree Days 26    
Moisture  
Dew Point 26 °F    
Average Humidity 59    
Maximum Humidity 88    
Minimum Humidity 37    
Precipitation  
Precipitation 0.00 in - - ()
Sea Level Pressure  
Sea Level Pressure 30.07 in    
Wind  
Wind Speed 4 mph (WSW)    
Max Wind Speed 14 mph    
Max Gust Speed 18 mph    
Visibility 10 miles    
Events      
Averages and records for this station are not official NWS values.
T = Trace of Precipitation, MM = Missing Value Source: NWS Daily Summary

Daily Weather History Graph

Daily Weather History Graph

Search for Another Location

Airport or City:

Trip Planner

Search our weather history database for the weather conditions in past years. The results will help you decide how hot, cold, wet, or windy it might be!

Date:

Astronomy

Dec. 03, 2012 Rise Set
Actual Time 7:09 AM MST 5:02 PM MST
Civil Twilight 6:41 AM MST 5:30 PM MST
Nautical Twilight 6:10 AM MST 6:02 PM MST
Astronomical Twilight 5:39 AM MST 6:33 PM MST
Moon 9:47 PM MST (12/3) 10:39 AM MST (12/3)
Length of Visible Light 10h 49m
Length of Day
9h 53m
Waning Gibbous, 77% of the Moon is Illuminated
Dec 3
Waning Gibbous
Dec 6
Last Quarter
Dec 13
New
Dec 19
First Quarter
Dec 28
Full

Hourly Weather History & Observations

Time (MST) Temp. Windchill Dew Point Humidity Pressure Visibility Wind Dir Wind Speed Gust Speed Precip Events Conditions
12:53 AM 39.0 °F - 24.1 °F 55% 29.94 in 10.0 mi Calm Calm - N/A   Partly Cloudy
1:53 AM 39.9 °F 36.7 °F 24.1 °F 53% 29.94 in 10.0 mi SW 4.6 mph - N/A   Overcast
2:53 AM 42.1 °F 39.2 °F 25.0 °F 51% 29.94 in 10.0 mi SSW 4.6 mph - N/A   Mostly Cloudy
3:53 AM 37.9 °F 34.4 °F 25.0 °F 60% 29.96 in 10.0 mi WSW 4.6 mph - N/A   Partly Cloudy
4:53 AM 39.0 °F 36.8 °F 27.0 °F 62% 30.00 in 10.0 mi WNW 3.5 mph - N/A   Clear
5:53 AM 37.9 °F 33.5 °F 27.0 °F 65% 30.06 in 10.0 mi SW 5.8 mph - N/A   Mostly Cloudy
6:53 AM 36.0 °F 30.3 °F 28.0 °F 73% 30.09 in 10.0 mi South 6.9 mph - N/A   Partly Cloudy
7:53 AM 37.0 °F 33.3 °F 28.9 °F 73% 30.09 in 10.0 mi ESE 4.6 mph - N/A   Partly Cloudy
8:53 AM 43.0 °F - 30.9 °F 62% 30.07 in 10.0 mi Calm Calm - N/A   Clear
9:53 AM 46.9 °F - 32.0 °F 56% 30.04 in 10.0 mi SSE 4.6 mph - N/A   Clear
10:53 AM 48.9 °F - 32.0 °F 52% 30.05 in 10.0 mi Calm Calm - N/A   Scattered Clouds
11:53 AM 53.1 °F - 30.0 °F 41% 30.03 in 10.0 mi West 12.7 mph 18.4 mph N/A   Clear
12:53 PM 50.0 °F - 28.9 °F 44% 30.02 in 10.0 mi WSW 12.7 mph - N/A   Scattered Clouds
1:53 PM 54.0 °F - 28.9 °F 38% 30.00 in 10.0 mi West 10.4 mph - N/A   Clear
2:53 PM 53.1 °F - 28.9 °F 40% 29.99 in 10.0 mi West 11.5 mph - N/A   Clear
3:53 PM 53.1 °F - 27.0 °F 37% 30.03 in 10.0 mi West 13.8 mph - N/A   Clear
4:53 PM 50.0 °F - 27.0 °F 41% 30.07 in 10.0 mi WNW 6.9 mph - N/A   Mostly Cloudy
5:53 PM 43.0 °F - 27.0 °F 53% 30.12 in 10.0 mi Calm Calm - N/A   Clear
6:53 PM 37.9 °F - 26.1 °F 62% 30.17 in 10.0 mi Calm Calm - N/A   Clear
7:53 PM 34.0 °F - 25.0 °F 70% 30.20 in 10.0 mi Calm Calm - N/A   Clear
8:53 PM 28.0 °F - 19.9 °F 72% 30.22 in 10.0 mi Calm Calm - N/A   Clear
9:53 PM 25.0 °F - 19.0 °F 78% 30.25 in 10.0 mi Calm Calm - N/A   Clear
10:53 PM 25.0 °F - 19.9 °F 81% 30.24 in 10.0 mi Calm Calm - N/A   Clear
11:53 PM 21.0 °F 14.6 °F 18.0 °F 88% 30.26 in 10.0 mi SSW 4.6 mph - N/A   Clear